Content
SEND FEEDBACK

Daily
Averages
Monthly
Summary
United States of America

CHELSEA, MICHIGAN


Home > North America > United States > Michigan
Elevation: 900 feet     Latitude: 42 19N     Longitude: 084 01W

WEATHER
 
SELECT A DAY
Number of Records: 206,948;   Date Range: 1/1/95 - 10/19/14
 
SHARE

PRINT THIS DATA

[ ← Previous Day ]
WEATHER ALMANAC - FEBRUARY 9, 2013
[ Next Day → ]
[ °C ]   °F
Weather ElementAverageHighLow
Temperature20.3 °F28.9 °F (3:53 pm)6.1 °F (7:53 am)
Dewpoint14.6 °F19 °F (5:53 pm)3 °F (7:53 am)
Humidity79.7 %96 % (10:53 pm)58 % (12:53 pm)
Barometer30.40 in30.47 in (8:53 am)30.31 in (11:53 pm)
Wind Speed4.2 mph9.2 mph (1:53 pm)
Weather ElementAverage
Visibility9.5 mi
Wind DirectionSSE (151.7 °)

Weather ElementTotal
Precipitation---
Heating Degree Days47.5 (Base 65)
Averaged from 23 records on February 9, 2013
WEATHER CONDITIONS BREAKOUT
WIND DIRECTION BREAKOUT
WEATHER BY HOUR - FEBRUARY 9, 2013
[ °C ]   °F
Local TimeTemperatureDewpointHumidityBarometerVisibilityWind DirectionWind SpeedGust SpeedPrecipitationEventsConditions
1:53 AM16.0 °F10.9 °F81 %30.40 in10.0 miNNW (330°)4.6 mphClear
2:53 AM15.1 °F10.9 °F84 %30.40 in10.0 miNNW (340°)5.8 mphClear
3:53 AM14.0 °F10.9 °F88 %30.40 in10.0 miNorth (350°)5.8 mphClear
4:53 AM14.0 °F10.0 °F84 %30.42 in10.0 miNorth (360°)4.6 mphClear
5:53 AM10.9 °F8.1 °F88 %30.41 in10.0 miNE (40°)4.6 mphClear
6:53 AM10.0 °F7.0 °F87 %30.44 in10.0 miCalmClear
7:53 AM6.1 °F3.0 °F87 %30.45 in7.0 miCalmClear
8:53 AM12.0 °F10.0 °F92 %30.47 in10.0 miCalmClear
9:53 AM19.0 °F15.1 °F85 %30.46 in10.0 miCalmClear
10:53 AM25.0 °F17.1 °F72 %30.45 in10.0 miEast (100°)4.6 mphClear
11:53 AM27.0 °F16.0 °F63 %30.45 in10.0 miSSE (150°)4.6 mphClear
12:53 PM28.0 °F15.1 °F58 %30.43 in10.0 miSouth (190°)6.9 mphClear
1:53 PM28.0 °F17.1 °F63 %30.42 in10.0 miSW (220°)9.2 mphClear
2:53 PM28.0 °F18.0 °F66 %30.39 in8.0 miSouth (190°)8.1 mphClear
3:53 PM28.9 °F18.0 °F64 %30.38 in10.0 miSouth (180°)8.1 mphClear
4:53 PM28.9 °F18.0 °F64 %30.36 in10.0 miSouth (190°)4.6 mphClear
5:53 PM26.1 °F19.0 °F75 %30.37 in10.0 miSSE (160°)3.5 mphClear
6:53 PM24.1 °F19.0 °F81 %30.38 in10.0 miSSE (150°)3.5 mphClear
7:53 PM21.9 °F18.0 °F85 %30.35 in10.0 miSE (130°)5.8 mphClear
8:53 PM21.9 °F19.0 °F89 %30.35 in10.0 miSE (130°)4.6 mphClear
9:53 PM21.0 °F18.0 °F88 %30.34 in9.0 miSE (140°)3.5 mphClear
10:53 PM19.0 °F18.0 °F96 %30.32 in7.0 miSE (140°)4.6 mphClear
11:53 PM21.0 °F19.0 °F92 %30.31 in8.0 miCalmClear
Hourly data recorded from KARB, located miles away from Chelsea, Michigan







STORIES FROM OUR PARTNERS